User: anonymous   Login
Location: Tyler Bend Campground
(35.9875°N, 92.7606°W)
Time: 13:31:29
(UTC-06:00)
Language:

CZ-2C R/B - Orbit

View from above orbital plane
View from above orbital plane
View from above satellite
View from above satellite

Ground track
Ground track

The orbit data is extracted from the following two-line orbital elements,

1 36089U 09061B   14354.73120958  .00000830  00000-0  21999-3 0  5129
2 36089 098.0874 020.2445 0081407 326.1755 168.1296 14.49313767269959
Epoch (UTC): 20 December 2014 17:32:56
Eccentricity: 0.0081407
inclination: 98.0874°
perigee height: 670 km
apogee height: 786 km
right ascension of ascending node: 20.2445°
argument of perigee: 326.1755°
revolutions per day: 14.49313767
mean anomaly at epoch: 168.1296°
orbit number at epoch: 26995

The dashed part of the orbit path shows where the satellite is in the earth's shadow,  

DLR